| time (UTC) | temp C | wind direction | speed KPH | gust KPH | rain 1hr cm | rain 24hr cm | rain mn cm | humidity % | barometer mb |
| 20260504175516 | 16 | 235 | 6.4 | 22.5 | 0.00 | 0.00 | 0.00 | 44 | 1009.4 |
| 20260504174516 | 17 | 174 | 6.4 | 16.1 | 0.00 | 0.00 | 0.00 | 44 | 1009.4 |
| 20260504173516 | 16 | 198 | 11.3 | 27.4 | 0.00 | 0.00 | 0.00 | 45 | 1009.4 |
| 20260504172516 | 15 | 226 | 9.7 | 22.5 | 0.00 | 0.00 | 0.00 | 47 | 1009.5 |
| 20260504171516 | 15 | 203 | 11.3 | 25.7 | 0.00 | 0.00 | 0.00 | 47 | 1009.6 |
| 20260504170516 | 15 | 219 | 8.0 | 19.3 | 0.00 | 0.00 | 0.00 | 48 | 1009.7 |
| 20260504150516 | 12 | 253 | 9.7 | 19.3 | 0.00 | 0.00 | 0.00 | 51 | 1010.7 |
| 20260504140516 | 11 | 215 | 8.0 | 19.3 | 0.00 | 0.00 | 0.00 | 54 | 1011.0 |
| 20260504130556 | 9 | 212 | 8.0 | 20.9 | 0.00 | 0.00 | 0.00 | 56 | 1011.5 |
| 20260504110517 | 5 | 323 | 1.6 | 4.8 | 0.00 | 0.00 | 0.00 | 71 | 1011.4 |
| 20260504100517 | 3 | 18 | 3.2 | 4.8 | 0.00 | 0.00 | 0.00 | 73 | 1011.5 |
| 20260504081517 | 3 | 9 | 1.6 | 3.2 | 0.00 | 0.00 | 0.00 | 70 | 1011.4 |
| 20260504080517 | 3 | 9 | 1.6 | 3.2 | 0.00 | 0.00 | 0.00 | 69 | 1011.5 |
| 20260504050536 | 3 | 0.0 | 1.6 | 0.00 | 0.00 | 0.00 | 75 | 1011.1 | |
| 20260504045516 | 3 | 355 | 1.6 | 3.2 | 0.00 | 0.00 | 0.00 | 74 | 1011.1 |
| 20260504044516 | 3 | 355 | 1.6 | 3.2 | 0.00 | 0.00 | 0.00 | 74 | 1011.2 |
| 20260504043516 | 3 | 355 | 0.0 | 1.6 | 0.00 | 0.00 | 0.00 | 74 | 1011.1 |
| 20260504042516 | 3 | 355 | 0.0 | 1.6 | 0.00 | 0.00 | 0.00 | 73 | 1011.2 |
| 20260504041516 | 3 | 355 | 0.0 | 3.2 | 0.00 | 0.00 | 0.00 | 71 | 1011.2 |
| 20260504040516 | 3 | 0.0 | 0.0 | 0.00 | 0.00 | 0.00 | 71 | 1011.1 | |
| 20260504035516 | 3 | 355 | 0.0 | 3.2 | 0.00 | 0.00 | 0.00 | 72 | 1011.2 |
| 20260504034516 | 3 | 355 | 0.0 | 1.6 | 0.00 | 0.00 | 0.00 | 74 | 1011.2 |
| 20260504033516 | 3 | 0.0 | 0.0 | 0.00 | 0.00 | 0.00 | 74 | 1011.2 | |
| 20260504032516 | 3 | 0.0 | 1.6 | 0.00 | 0.00 | 0.00 | 74 | 1011.2 | |
| 20260504031516 | 3 | 355 | 0.0 | 1.6 | 0.00 | 0.00 | 0.00 | 73 | 1011.2 |
| 20260504030516 | 3 | 355 | 0.0 | 1.6 | 0.00 | 0.00 | 0.00 | 71 | 1011.3 |
| 20260504025516 | 3 | 0.0 | 0.0 | 0.00 | 0.00 | 0.00 | 72 | 1011.2 | |
| 20260504024516 | 3 | 355 | 0.0 | 3.2 | 0.00 | 0.00 | 0.00 | 73 | 1011.2 |
| 20260504023516 | 3 | 0.0 | 0.0 | 0.00 | 0.00 | 0.00 | 70 | 1011.3 | |
| 20260504022516 | 4 | 355 | 0.0 | 1.6 | 0.00 | 0.00 | 0.00 | 70 | 1011.2 |
| 20260504021516 | 4 | 0.0 | 0.0 | 0.00 | 0.00 | 0.00 | 70 | 1011.1 | |
| 20260504020516 | 4 | 0.0 | 0.0 | 0.00 | 0.00 | 0.00 | 69 | 1011.1 | |
| 20260504015536 | 5 | 355 | 0.0 | 1.6 | 0.00 | 0.00 | 0.00 | 69 | 1011.0 |
| 20260504014516 | 5 | 0.0 | 0.0 | 0.00 | 0.00 | 0.00 | 67 | 1011.0 | |
| 20260504013516 | 5 | 355 | 0.0 | 3.2 | 0.00 | 0.00 | 0.00 | 68 | 1010.9 |
| 20260504012516 | 5 | 0.0 | 1.6 | 0.00 | 0.00 | 0.00 | 65 | 1010.9 | |
| 20260504011536 | 5 | 355 | 1.6 | 3.2 | 0.00 | 0.00 | 0.00 | 64 | 1010.8 |
| 20260504010516 | 6 | 353 | 1.6 | 3.2 | 0.00 | 0.00 | 0.00 | 64 | 1010.6 |
| 20260504005516 | 6 | 348 | 1.6 | 3.2 | 0.00 | 0.00 | 0.00 | 62 | 1010.6 |
| 20260504004516 | 6 | 348 | 1.6 | 3.2 | 0.00 | 0.00 | 0.00 | 62 | 1010.6 |
| 20260504003516 | 6 | 348 | 1.6 | 3.2 | 0.00 | 0.00 | 0.00 | 62 | 1010.6 |
| 20260504002516 | 6 | 348 | 1.6 | 3.2 | 0.00 | 0.00 | 0.00 | 60 | 1010.5 |
| 20260504001516 | 7 | 343 | 1.6 | 3.2 | 0.00 | 0.00 | 0.00 | 60 | 1010.4 |
| 20260504000516 | 7 | 31 | 1.6 | 4.8 | 0.00 | 0.00 | 0.00 | 58 | 1010.4 |
| 20260503235516 | 7 | 298 | 0.0 | 3.2 | 0.00 | 0.00 | 0.00 | 56 | 1010.3 |
| 20260503234516 | 7 | 264 | 1.6 | 6.4 | 0.00 | 0.00 | 0.00 | 56 | 1010.2 |
| 20260503233516 | 7 | 271 | 1.6 | 4.8 | 0.00 | 0.00 | 0.00 | 55 | 1010.1 |
| 20260503232516 | 7 | 230 | 3.2 | 8.0 | 0.00 | 0.00 | 0.00 | 55 | 1010.1 |
| 20260503231516 | 7 | 219 | 3.2 | 16.1 | 0.00 | 0.00 | 0.00 | 54 | 1010.1 |
| 20260503230516 | 8 | 210 | 4.8 | 27.4 | 0.00 | 0.00 | 0.00 | 54 | 1010.1 |
| 20260503225516 | 8 | 248 | 4.8 | 16.1 | 0.00 | 0.00 | 0.00 | 53 | 1010.1 |
| 20260503224516 | 8 | 214 | 4.8 | 12.9 | 0.00 | 0.00 | 0.00 | 51 | 1010.0 |
| 20260503223536 | 8 | 214 | 4.8 | 16.1 | 0.00 | 0.00 | 0.00 | 50 | 1010.0 |
| 20260503222536 | 8 | 226 | 3.2 | 11.3 | 0.00 | 0.00 | 0.00 | 50 | 1009.9 |
| 20260503221536 | 8 | 238 | 4.8 | 16.1 | 0.00 | 0.00 | 0.00 | 49 | 1009.9 |
| 20260503220516 | 8 | 230 | 6.4 | 20.9 | 0.00 | 0.00 | 0.00 | 49 | 1009.8 |
| 20260503215516 | 8 | 231 | 4.8 | 17.7 | 0.00 | 0.00 | 0.00 | 48 | 1009.7 |
| 20260503214516 | 8 | 263 | 6.4 | 22.5 | 0.00 | 0.00 | 0.00 | 46 | 1009.7 |
| 20260503213516 | 8 | 318 | 3.2 | 37.0 | 0.00 | 0.00 | 0.00 | 45 | 1009.5 |
| 20260503212516 | 9 | 197 | 6.4 | 24.1 | 0.00 | 0.00 | 0.00 | 44 | 1009.4 |
| 20260503211516 | 10 | 243 | 8.0 | 19.3 | 0.00 | 0.00 | 0.00 | 43 | 1009.3 |
| 20260503210516 | 9 | 234 | 8.0 | 16.1 | 0.00 | 0.00 | 0.00 | 43 | 1009.2 |
| 20260503205516 | 10 | 221 | 9.7 | 27.4 | 0.00 | 0.00 | 0.00 | 41 | 1009.3 |
| 20260503204516 | 10 | 227 | 6.4 | 20.9 | 0.00 | 0.00 | 0.00 | 40 | 1009.2 |
| 20260503203516 | 10 | 213 | 6.4 | 16.1 | 0.00 | 0.00 | 0.00 | 40 | 1009.3 |
| 20260503202516 | 10 | 220 | 8.0 | 25.7 | 0.00 | 0.00 | 0.00 | 40 | 1009.3 |
| 20260503201516 | 9 | 76 | 6.4 | 29.0 | 0.00 | 0.00 | 0.00 | 38 | 1009.3 |
| 20260503200516 | 9 | 245 | 9.7 | 27.4 | 0.00 | 0.00 | 0.00 | 39 | 1009.3 |
| 20260503195517 | 9 | 236 | 11.3 | 32.2 | 0.00 | 0.00 | 0.00 | 38 | 1009.4 |
| 20260503194517 | 9 | 214 | 6.4 | 17.7 | 0.00 | 0.00 | 0.00 | 40 | 1009.5 |
| 20260503193517 | 8 | 206 | 6.4 | 22.5 | 0.00 | 0.00 | 0.00 | 41 | 1009.6 |
| 20260503192537 | 8 | 206 | 6.4 | 24.1 | 0.00 | 0.00 | 0.00 | 42 | 1009.7 |
| 20260503191517 | 8 | 235 | 12.9 | 25.7 | 0.00 | 0.00 | 0.00 | 41 | 1009.8 |
| 20260503190517 | 8 | 228 | 9.7 | 20.9 | 0.00 | 0.00 | 0.00 | 44 | 1009.7 |
| 20260503185517 | 7 | 233 | 8.0 | 22.5 | 0.00 | 0.00 | 0.00 | 44 | 1009.9 |
| 20260503184518 | 7 | 267 | 8.0 | 30.6 | 0.00 | 0.00 | 0.00 | 44 | 1010.0 |
| 20260503183517 | 7 | 233 | 6.4 | 20.9 | 0.00 | 0.00 | 0.00 | 45 | 1010.1 |
| 20260503182517 | 8 | 208 | 4.8 | 20.9 | 0.00 | 0.00 | 0.00 | 44 | 1010.1 |
| 20260503181537 | 7 | 280 | 8.0 | 20.9 | 0.00 | 0.00 | 0.00 | 47 | 1010.2 |
| 20260503180517 | 6 | 258 | 11.3 | 24.1 | 0.00 | 0.00 | 0.00 | 47 | 1010.2 |